Location: Milevsko
(49.4500°N, 14.3670°E)
Time: 16:11:56
(UTC+02:00)

ISS - Pass Details

Date: 25 September 2021
Orbit: 417 x 423 km, 51.6° (Epoch: 22 October)

Event Time Altitude Azimuth Distance (km) Brightness Sun altitude
Rises 20:07:32 0° 273° (W) 2,362 1.9 -12.7°
Reaches altitude 10° 20:09:40 10° 277° (W) 1,499 0.5 -13.1°
Maximum altitude 20:12:59 57° 358° (N) 500 -3.3 -13.6°
Enters shadow 20:14:55 22° 70° (ENE) 962 -2.4 -13.9°
